{"data":{"norad_id":57424,"epoch":"2026-09-21T22:46:23.849760Z","epoch_age_seconds":82423,"freshness":"FRESH","line1":"1 57424U 23104A   26264.94888715  .00007484  00000+0  21090-3 0  9999","line2":"2 57424  97.2619 331.9280 0008358 123.3652 236.8394 15.36685285176895","mean_motion":15.36685285,"eccentricity":0.0008358,"inclination_deg":97.2619,"raan_deg":331.928,"arg_perigee_deg":123.3652,"mean_anomaly_deg":236.8394,"bstar":0.0002109,"rev_number":17689,"period_min":93.708192175472,"perigee_km":450.20740642614,"apogee_km":461.63121495508,"semimajor_km":6834.0563106906,"source":"CELESTRAK","updated_at":"2026-09-22T09:00:26.192241Z"}}